CW0214 Weather Reports


time (UTC)temp
C
wind
direction
speed
KPH
gust
KPH
rain 1hr
cm
rain 24hr
cm
rain mn
cm
humidity
%
barometer
mb
20181211184849 13 284 1.6 4.8 0.00 0.00 0.00 89 1022.3
20181211184349 13 284 3.2 4.8 0.00 0.00 0.00 89 1022.3
20181211183849 13 284 1.6 3.2 0.00 0.00 0.00 88 1022.2
20181211183349 13 284 0.0 0.0 0.00 0.00 0.00 88 1022.2
20181211182849 13 284 0.0 0.0 0.00 0.00 0.00 88 1022.2
20181211182349 13 284 0.0 0.0 0.00 0.00 0.00 88 1022.2
20181211181849 13 284 0.0 0.0 0.00 0.00 0.00 88 1022.2
20181211181350 13 284 0.0 0.0 0.00 0.00 0.00 88 1022.2
20181211180849 13 284 0.0 1.6 0.00 0.00 0.00 88 1022.3
20181211180350 13 284 0.0 0.0 0.00 0.00 0.00 88 1022.4
20181211175849 13 284 0.0 1.6 0.00 0.00 0.00 87 1022.5
20181211175349 13 284 1.6 8.0 0.00 0.00 0.00 87 1022.6
20181211174850 13 284 0.0 0.0 0.00 0.00 0.00 87 1022.6
20181211174349 13 284 0.0 1.6 0.00 0.00 0.00 87 1022.4
20181211173849 13 284 0.0 0.0 0.00 0.00 0.00 86 1022.4
20181211173349 13 284 1.6 9.7 0.00 0.00 0.00 86 1022.2
20181211172850 13 282 1.6 11.3 0.00 0.00 0.00 86 1022.2
20181211172350 13 286 4.8 9.7 0.00 0.00 0.00 86 1022.2
20181211171849 13 285 3.2 9.7 0.00 0.00 0.00 86 1022.2
20181211171349 13 285 0.0 3.2 0.00 0.00 0.00 86 1022.2
20181211170849 13 284 1.6 9.7 0.00 0.00 0.00 85 1022.2
20181211170349 13 273 0.0 4.8 0.00 0.00 0.00 85 1022.0
20181211165849 13 273 0.0 4.8 0.00 0.00 0.00 85 1021.7
20181211165349 13 269 1.6 8.0 0.00 0.00 0.00 85 1021.7
20181211164849 13 276 3.2 11.3 0.00 0.00 0.00 85 1021.7
20181211164349 13 250 0.0 4.8 0.00 0.00 0.00 84 1021.7
20181211163850 13 250 1.6 4.8 0.00 0.00 0.00 84 1021.6
20181211163350 13 250 1.6 8.0 0.00 0.00 0.00 84 1021.5
20181211162850 14 250 1.6 8.0 0.00 0.00 0.00 84 1021.6
20181211162349 14 250 3.2 9.7 0.00 0.00 0.00 84 1021.5
20181211161850 14 280 4.8 9.7 0.00 0.00 0.00 83 1021.4
20181211161349 14 65 1.6 8.0 0.00 0.00 0.00 83 1021.3
20181211160850 14 65 0.0 0.0 0.00 0.00 0.00 83 1021.3
20181211160350 14 65 0.0 0.0 0.00 0.00 0.00 83 1021.1
20181211155850 14 65 0.0 1.6 0.00 0.00 0.00 83 1021.2
20181211155350 14 64 0.0 0.0 0.00 0.00 0.00 83 1021.1
20181211154849 14 64 0.0 4.8 0.00 0.00 0.00 82 1021.3
20181211154349 14 65 3.2 4.8 0.00 0.00 0.00 82 1021.3
20181211153849 14 75 0.0 1.6 0.00 0.00 0.00 82 1021.1
20181211153349 14 75 1.6 4.8 0.00 0.00 0.00 82 1021.1
20181211152850 14 75 1.6 4.8 0.00 0.00 0.00 82 1021.1
20181211152349 14 75 0.0 4.8 0.00 0.00 0.00 83 1021.1
20181211151849 14 75 1.6 4.8 0.00 0.00 0.00 83 1021.1
20181211151350 14 75 1.6 4.8 0.00 0.00 0.00 83 1021.1
20181211150849 14 75 3.2 4.8 0.00 0.00 0.00 82 1021.1
20181211150350 15 75 0.0 0.0 0.00 0.00 0.00 82 1021.1
20181211145850 15 75 0.0 0.0 0.00 0.00 0.00 82 1021.1
20181211145350 15 75 0.0 0.0 0.00 0.00 0.00 82 1021.1
20181211144850 15 75 0.0 0.0 0.00 0.00 0.00 82 1021.1
20181211144350 14 75 1.6 3.2 0.00 0.00 0.00 82 1021.2
20181211143849 15 75 0.0 0.0 0.00 0.00 0.00 82 1021.3
20181211143350 15 75 0.0 0.0 0.00 0.00 0.00 82 1021.2
20181211142850 15 75 0.0 0.0 0.00 0.00 0.00 82 1021.1
20181211142350 14 75 0.0 0.0 0.00 0.00 0.00 82 1021.1
20181211141850 14 75 0.0 0.0 0.00 0.00 0.00 83 1021.2
20181211141351 14 75 0.0 0.0 0.00 0.00 0.00 83 1021.2
20181211140850 14 75 0.0 0.0 0.00 0.00 0.00 82 1021.2
20181211140350 14 75 0.0 0.0 0.00 0.00 0.00 82 1021.3
20181211135850 14 75 0.0 0.0 0.00 0.00 0.00 82 1021.3
20181211135351 14 75 1.6 3.2 0.00 0.00 0.00 81 1021.3
20181211134849 14 75 0.0 0.0 0.00 0.00 0.00 81 1021.4
20181211134350 14 75 0.0 0.0 0.00 0.00 0.00 80 1021.5
20181211133850 14 75 0.0 1.6 0.00 0.00 0.00 80 1021.6
20181211133350 14 75 0.0 0.0 0.00 0.00 0.00 80 1021.6
20181211132850 14 75 1.6 3.2 0.00 0.00 0.00 80 1021.6
20181211132349 14 75 0.0 0.0 0.00 0.00 0.00 80 1021.6
20181211131851 14 75 0.0 0.0 0.00 0.00 0.00 80 1021.5
20181211131351 14 75 0.0 1.6 0.00 0.00 0.00 81 1021.6
20181211130850 14 75 0.0 0.0 0.00 0.00 0.00 79 1021.6
20181211130350 14 75 0.0 0.0 0.00 0.00 0.00 78 1021.6
20181211125850 14 75 0.0 0.0 0.00 0.00 0.00 80 1021.8
20181211125349 13 75 0.0 4.8 0.00 0.00 0.00 80 1021.7
20181211124850 13 74 3.2 8.0 0.00 0.00 0.00 78 1021.6
20181211124350 13 88 0.0 3.2 0.00 0.00 0.00 79 1021.6
20181211123850 13 85 3.2 9.7 0.00 0.00 0.00 79 1021.7
20181211123350 13 67 4.8 8.0 0.00 0.00 0.00 80 1021.7
20181211122850 13 69 3.2 9.7 0.00 0.00 0.00 79 1021.7
20181211122349 13 108 6.4 12.9 0.00 0.00 0.00 78 1021.9
20181211121850 13 103 4.8 9.7 0.00 0.00 0.00 79 1022.1
20181211121351 13 88 4.8 9.7 0.00 0.00 0.00 79 1022.2
20181211120850 12 63 3.2 8.0 0.00 0.00 0.00 79 1022.2
20181211120349 12 63 0.0 3.2 0.00 0.00 0.00 79 1022.2
20181211115850 12 63 0.0 0.0 0.00 0.00 0.00 79 1022.5
20181211115349 12 63 0.0 4.8 0.00 0.00 0.00 80 1022.6
20181211114850 12 63 3.2 4.8 0.00 0.00 0.00 79 1022.7
20181211114349 12 63 0.0 0.0 0.00 0.00 0.00 79 1022.7
20181211113849 12 63 3.2 4.8 0.00 0.00 0.00 79 1022.7
20181211113350 12 63 3.2 8.0 0.00 0.00 0.00 79 1022.8
20181211112850 12 63 0.0 0.0 0.00 0.00 0.00 80 1023.0
20181211112350 12 63 0.0 0.0 0.00 0.00 0.00 81 1023.1
20181211111850 12 63 0.0 0.0 0.00 0.00 0.00 81 1023.2
20181211111351 11 63 0.0 0.0 0.00 0.00 0.00 81 1023.3
20181211110850 11 63 0.0 0.0 0.00 0.00 0.00 81 1023.3
20181211110349 11 63 0.0 1.6 0.00 0.00 0.00 80 1023.3
20181211105850 12 63 0.0 0.0 0.00 0.00 0.00 80 1023.2
20181211105350 11 63 0.0 0.0 0.00 0.00 0.00 79 1023.3
20181211104849 11 63 0.0 0.0 0.00 0.00 0.00 79 1023.2
20181211104350 11 63 3.2 8.0 0.00 0.00 0.00 79 1023.2
20181211103849 11 46 1.6 4.8 0.00 0.00 0.00 79 1023.2
20181211103350 11 45 3.2 8.0 0.00 0.00 0.00 79 1023.2
20181211102850 11 42 0.0 8.0 0.00 0.00 0.00 79 1023.3
20181211102350 11 49 3.2 8.0 0.00 0.00 0.00 79 1023.3
20181211101850 11 49 6.4 8.0 0.00 0.00 0.00 79 1023.2
20181211101351 11 49 1.6 9.7 0.00 0.00 0.00 79 1023.2
20181211100850 11 47 1.6 9.7 0.00 0.00 0.00 79 1023.3
20181211100349 11 33 4.8 9.7 0.00 0.00 0.00 79 1023.2
20181211095849 11 49 4.8 8.0 0.00 0.00 0.00 79 1023.1
20181211095349 11 49 4.8 11.3 0.00 0.00 0.00 79 1022.8
20181211094850 11 59 8.0 11.3 0.00 0.00 0.00 78 1022.8
20181211094350 11 74 6.4 11.3 0.00 0.00 0.00 78 1022.7
20181211093850 11 53 3.2 9.7 0.00 0.00 0.00 78 1022.7
20181211093350 10 48 3.2 9.7 0.00 0.00 0.00 78 1022.7
20181211092849 10 53 6.4 9.7 0.00 0.00 0.00 77 1022.6
20181211092350 10 53 8.0 14.5 0.00 0.00 0.00 77 1022.5
20181211091850 10 56 4.8 14.5 0.00 0.00 0.00 78 1022.3
20181211091352 10 70 4.8 11.3 0.00 0.00 0.00 77 1022.3
20181211090851 10 83 6.4 14.5 0.00 0.00 0.00 77 1022.3
20181211090350 10 67 9.7 16.1 0.00 0.00 0.00 77 1022.2
20181211085850 10 80 9.7 19.3 0.00 0.00 0.00 77 1022.2
20181211085350 10 83 9.7 16.1 0.00 0.00 0.00 77 1022.2
20181211084849 10 80 11.3 16.1 0.00 0.00 0.00 77 1022.2
20181211084349 10 76 9.7 14.5 0.00 0.00 0.00 77 1022.2
20181211083849 10 78 9.7 14.5 0.00 0.00 0.00 77 1022.2
20181211083349 10 70 3.2 12.9 0.00 0.00 0.00 76 1022.2
20181211082850 10 77 6.4 14.5 0.00 0.00 0.00 76 1022.2
20181211082349 10 80 4.8 11.3 0.00 0.00 0.00 76 1022.2
20181211081849 10 64 4.8 9.7 0.00 0.00 0.00 76 1022.2
20181211081350 10 41 4.8 9.7 0.00 0.00 0.00 75 1022.2
20181211080849 10 59 4.8 12.9 0.00 0.00 0.00 75 1022.0
20181211080349 10 54 8.0 12.9 0.00 0.00 0.00 75 1021.9
20181211075849 10 57 3.2 12.9 0.00 0.00 0.00 75 1021.8
20181211075349 10 68 3.2 9.7 0.00 0.00 0.00 74 1021.9
20181211074849 10 41 4.8 14.5 0.00 0.00 0.00 74 1021.8
20181211074349 10 53 3.2 11.3 0.00 0.00 0.00 73 1021.8
20181211073849 10 62 4.8 11.3 0.00 0.00 0.00 73 1021.8
20181211073349 10 49 1.6 8.0 0.00 0.00 0.00 72 1021.8
20181211072849 10 39 8.0 11.3 0.00 0.00 0.00 72 1021.7
20181211072349 10 61 8.0 12.9 0.00 0.00 0.00 72 1021.7
20181211071850 10 43 4.8 9.7 0.00 0.00 0.00 73 1021.7
20181211071350 10 65 1.6 8.0 0.00 0.00 0.00 73 1021.7
20181211070849 10 71 1.6 11.3 0.00 0.00 0.00 73 1021.6
20181211070350 10 59 0.0 8.0 0.00 0.00 0.00 73 1021.6
20181211065850 10 61 4.8 9.7 0.00 0.00 0.00 73 1021.3
20181211065349 10 67 1.6 12.9 0.00 0.00 0.00 72 1021.2
20181211064849 10 57 3.2 11.3 0.00 0.00 0.00 72 1021.1
20181211064349 10 64 4.8 9.7 0.00 0.00 0.00 72 1021.0
20181211063849 10 73 3.2 11.3 0.00 0.00 0.00 71 1021.1
20181211063349 10 72 3.2 11.3 0.00 0.00 0.00 71 1021.0
20181211062850 10 79 3.2 8.0 0.00 0.00 0.00 71 1021.1
20181211062349 11 108 4.8 11.3 0.00 0.00 0.00 71 1021.1
20181211061850 11 95 3.2 11.3 0.00 0.00 0.00 70 1021.0
20181211061349 11 78 4.8 9.7 0.00 0.00 0.00 71 1021.0
20181211060849 10 86 1.6 4.8 0.00 0.00 0.00 71 1021.0
20181211060350 10 79 0.0 4.8 0.00 0.00 0.00 71 1021.0
20181211055849 10 78 3.2 9.7 0.00 0.00 0.00 71 1020.8
20181211055349 10 73 4.8 9.7 0.00 0.00 0.00 71 1020.7
20181211054850 10 123 1.6 4.8 0.00 0.00 0.00 71 1020.7
20181211054349 11 137 1.6 9.7 0.00 0.00 0.00 71 1020.6
20181211053850 11 77 4.8 8.0 0.00 0.00 0.00 70 1020.5
20181211053349 11 74 1.6 8.0 0.00 0.00 0.00 71 1020.5
20181211052850 11 102 1.6 11.3 0.00 0.00 0.00 71 1020.5
20181211052349 11 83 3.2 11.3 0.00 0.00 0.00 70 1020.5
20181211051849 11 115 1.6 11.3 0.00 0.00 0.00 70 1020.5
20181211051350 11 60 3.2 11.3 0.00 0.00 0.00 70 1020.4
20181211050850 11 57 3.2 8.0 0.00 0.00 0.00 70 1020.4
20181211050350 11 115 3.2 12.9 0.00 0.00 0.00 69 1020.3
20181211045850 11 66 3.2 8.0 0.00 0.00 0.00 69 1020.3
20181211045350 11 87 3.2 12.9 0.00 0.00 0.00 69 1020.3
20181211044849 11 62 3.2 8.0 0.00 0.00 0.00 69 1020.2
20181211044349 11 54 8.0 12.9 0.00 0.00 0.00 68 1020.2
20181211043850 11 61 8.0 16.1 0.00 0.00 0.00 68 1020.2
20181211043350 11 67 11.3 19.3 0.00 0.00 0.00 68 1020.3
20181211042850 11 62 8.0 12.9 0.00 0.00 0.00 69 1020.5
20181211042349 11 80 4.8 11.3 0.00 0.00 0.00 69 1020.5
20181211041849 11 72 8.0 14.5 0.00 0.00 0.00 68 1020.5
20181211041351 11 65 9.7 19.3 0.00 0.00 0.00 68 1020.5
20181211040850 11 61 8.0 12.9 0.00 0.00 0.00 68 1020.5
20181211040350 11 58 8.0 11.3 0.00 0.00 0.00 68 1020.6
20181211035849 11 54 6.4 12.9 0.00 0.00 0.00 68 1020.6
20181211035350 11 60 6.4 11.3 0.00 0.00 0.00 69 1020.6
20181211034850 11 76 4.8 11.3 0.00 0.00 0.00 69 1020.8
20181211034349 11 76 4.8 11.3 0.00 0.00 0.00 68 1020.9
20181211033850 11 69 1.6 12.9 0.00 0.00 0.00 68 1020.9
20181211033349 11 63 4.8 12.9 0.00 0.00 0.00 68 1020.9
20181211032849 11 60 8.0 12.9 0.00 0.00 0.00 67 1021.0
20181211032350 11 71 9.7 12.9 0.00 0.00 0.00 67 1021.0
20181211031849 11 63 9.7 14.5 0.00 0.00 0.00 67 1021.0
20181211031349 11 65 9.7 14.5 0.00 0.00 0.00 67 1021.0
20181211030850 11 64 8.0 12.9 0.00 0.00 0.00 67 1021.1
20181211030349 11 71 9.7 12.9 0.00 0.00 0.00 67 1021.0
20181211025850 11 70 9.7 16.1 0.00 0.00 0.00 67 1021.0
20181211025349 11 71 9.7 14.5 0.00 0.00 0.00 66 1021.0
20181211024850 11 69 8.0 14.5 0.00 0.00 0.00 66 1021.0
20181211024350 12 79 9.7 19.3 0.00 0.00 0.00 66 1021.1
20181211023850 12 70 8.0 14.5 0.00 0.00 0.00 66 1021.1
20181211023350 12 42 8.0 12.9 0.00 0.00 0.00 66 1021.1
20181211022850 12 73 4.8 12.9 0.00 0.00 0.00 65 1021.1
20181211022350 12 65 6.4 14.5 0.00 0.00 0.00 65 1021.2
20181211021852 12 64 9.7 16.1 0.00 0.00 0.00 65 1021.3
20181211021349 12 56 8.0 12.9 0.00 0.00 0.00 65 1021.5
20181211020849 12 57 8.0 14.5 0.00 0.00 0.00 65 1021.5
20181211020350 12 81 8.0 14.5 0.00 0.00 0.00 64 1021.4
20181211015849 12 55 9.7 14.5 0.00 0.00 0.00 64 1021.5
20181211015349 12 61 9.7 14.5 0.00 0.00 0.00 64 1021.5
20181211014849 12 55 8.0 11.3 0.00 0.00 0.00 64 1021.5
20181211014349 12 65 9.7 14.5 0.00 0.00 0.00 64 1021.5
20181211013850 12 66 9.7 14.5 0.00 0.00 0.00 63 1021.5
20181211013349 12 60 8.0 14.5 0.00 0.00 0.00 63 1021.6
20181211012849 12 57 8.0 14.5 0.00 0.00 0.00 63 1021.7
20181211012350 12 63 9.7 12.9 0.00 0.00 0.00 63 1021.6
20181211011850 12 67 9.7 14.5 0.00 0.00 0.00 63 1021.6
20181211011350 12 73 9.7 16.1 0.00 0.00 0.00 62 1021.6
20181211010850 12 73 9.7 16.1 0.00 0.00 0.00 62 1021.6
20181211010350 12 61 9.7 14.5 0.00 0.00 0.00 62 1021.7
20181211005850 12 70 9.7 14.5 0.00 0.00 0.00 62 1021.8
20181211005350 12 57 4.8 11.3 0.00 0.03 0.00 63 1022.0
20181211004849 12 49 3.2 8.0 0.00 0.03 0.00 64 1022.0
20181211004350 12 87 0.0 8.0 0.00 0.03 0.00 64 1022.0
20181211003849 12 63 1.6 9.7 0.00 0.03 0.00 65 1022.0
20181211003349 12 74 3.2 9.7 0.00 0.03 0.00 66 1022.0
20181211002849 12 57 0.0 8.0 0.00 0.03 0.00 66 1022.0
20181211002349 12 57 1.6 4.8 0.00 0.03 0.00 65 1022.0
20181211001850 12 57 0.0 3.2 0.00 0.03 0.00 64 1022.0
20181211001349 12 57 1.6 9.7 0.00 0.03 0.00 63 1022.0
20181211000849 12 58 8.0 11.3 0.00 0.03 0.00 64 1022.0
20181211000350 12 56 4.8 11.3 0.00 0.03 0.00 64 1022.1
20181210235850 12 60 8.0 11.3 0.00 0.03 0.03 64 1022.2
20181210235350 12 64 1.6 8.0 0.00 0.03 0.03 65 1022.2
20181210234850 12 53 3.2 8.0 0.00 0.03 0.03 64 1022.3
20181210234350 13 51 3.2 9.7 0.00 0.03 0.03 64 1022.4
20181210233850 13 53 4.8 9.7 0.00 0.03 0.03 64 1022.4
20181210233350 13 64 8.0 11.3 0.00 0.03 0.03 64 1022.5
20181210232850 13 61 4.8 12.9 0.00 0.03 0.03 64 1022.5
20181210232350 13 63 6.4 11.3 0.00 0.03 0.03 64 1022.5
20181210231900 13 69 9.7 16.1 0.00 0.03 0.03 64 1022.5
20181210231350 13 66 8.0 16.1 0.00 0.03 0.03 64 1022.5
20181210230850 13 71 8.0 12.9 0.00 0.03 0.03 64 1022.5
20181210230350 13 65 8.0 11.3 0.00 0.03 0.03 63 1022.5
20181210225849 13 73 8.0 14.5 0.00 0.03 0.03 63 1022.6
20181210225349 13 64 9.7 12.9 0.00 0.03 0.03 63 1022.6
20181210224850 13 75 8.0 12.9 0.00 0.03 0.03 63 1022.6
20181210224350 13 79 9.7 12.9 0.00 0.03 0.03 63 1022.6
20181210223850 13 74 9.7 14.5 0.00 0.03 0.03 64 1022.6
20181210223350 13 63 8.0 12.9 0.00 0.03 0.03 64 1022.6
20181210222850 13 67 8.0 11.3 0.00 0.03 0.03 64 1022.6
20181210222350 13 50 1.6 4.8 0.00 0.03 0.03 65 1022.6
20181210221850 13 49 0.0 8.0 0.00 0.03 0.03 65 1022.6
20181210221351 13 47 1.6 9.7 0.00 0.03 0.03 64 1022.6
20181210220850 13 66 11.3 16.1 0.00 0.03 0.03 64 1022.6
20181210220349 13 65 8.0 14.5 0.00 0.03 0.03 65 1022.6
20181210215850 13 67 4.8 14.5 0.00 0.03 0.03 65 1022.6
20181210215350 13 56 6.4 11.3 0.00 0.03 0.03 65 1022.7
20181210214850 13 42 3.2 9.7 0.00 0.03 0.03 66 1022.7
20181210214350 13 40 1.6 9.7 0.00 0.03 0.03 66 1022.7
20181210213850 13 100 4.8 9.7 0.00 0.03 0.03 66 1022.7
20181210213352 13 37 1.6 9.7 0.00 0.03 0.03 65 1022.6
20181210212851 14 123 0.0 4.8 0.00 0.03 0.03 65 1022.7
20181210212351 14 57 0.0 1.6 0.00 0.03 0.03 65 1022.6
20181210211850 14 88 1.6 4.8 0.00 0.03 0.03 64 1022.6
20181210211351 14 121 0.0 1.6 0.00 0.03 0.03 64 1022.7
20181210210850 15 121 1.6 11.3 0.00 0.03 0.03 62 1022.7
20181210210350 15 93 8.0 12.9 0.00 0.03 0.03 61 1022.7
20181210205850 15 71 8.0 12.9 0.00 0.03 0.03 62 1022.7
20181210205350 14 90 1.6 8.0 0.00 0.03 0.03 63 1022.7
20181210204850 15 115 4.8 19.3 0.00 0.03 0.03 63 1022.7
20181210204350 15 88 11.3 19.3 0.00 0.03 0.03 63 1022.8
20181210203850 15 71 4.8 16.1 0.00 0.03 0.03 63 1022.9
20181210203350 15 66 1.6 8.0 0.00 0.03 0.03 63 1023.0
20181210202851 15 58 0.0 1.6 0.00 0.03 0.03 63 1023.0
20181210202351 15 69 0.0 8.0 0.00 0.03 0.03 63 1023.0
20181210201850 15 91 0.0 8.0 0.00 0.03 0.03 63 1023.1
20181210201351 15 85 1.6 8.0 0.00 0.03 0.03 63 1023.1
20181210200850 15 102 1.6 9.7 0.00 0.03 0.03 62 1023.0
20181210200350 15 71 0.0 4.8 0.00 0.03 0.03 62 1023.0
20181210195851 15 80 0.0 8.0 0.00 0.03 0.03 62 1023.1
20181210195351 15 73 0.0 0.0 0.00 0.03 0.03 62 1023.1
20181210194851 15 73 0.0 0.0 0.00 0.03 0.03 61 1023.1
20181210194354 15 73 0.0 4.8 0.00 0.03 0.03 60 1023.1
20181210193850 15 73 0.0 4.8 0.00 0.03 0.03 59 1023.1
20181210193351 15 73 0.0 3.2 0.00 0.03 0.03 58 1023.0
20181210192851 15 110 0.0 12.9 0.00 0.03 0.03 57 1023.0
20181210192350 15 80 4.8 12.9 0.00 0.03 0.03 56 1023.0
20181210191851 15 71 4.8 14.5 0.00 0.03 0.03 57 1023.0
20181210191351 16 86 4.8 11.3 0.00 0.03 0.03 57 1023.0
20181210190850 16 93 4.8 12.9 0.00 0.03 0.03 55 1022.8
20181210190350 16 74 9.7 14.5 0.00 0.03 0.03 55 1022.7
20181210185850 16 82 8.0 14.5 0.00 0.03 0.03 54 1022.8
20181210185350 16 71 4.8 14.5 0.00 0.03 0.03 54 1022.8